Location: Navarre
(52.9016°N, 113.4144°W)
Time: 12:46:45
(UTC+00:00)

Envisat - Pass Details

Date: 01 December 2021
Orbit: 764 x 766 km, 98.2° (Epoch: 28 January)

Event Time Altitude Azimuth Distance (km) Brightness Sun altitude
Rises 00:20:03 0° 190° (S) 3,221 6.8 -8.4°
Reaches altitude 10° 00:22:33 10° 199° (SSW) 2,300 6.2 -8.7°
Maximum altitude 00:27:09 35° 265° (W) 1,236 4.9 -9.3°
Drops below altitude 10° 00:31:49 10° 331° (NNW) 2,317 5.6 -10.0°
Sets 00:34:20 0° 340° (NNW) 3,248 6.2 -10.3°
